This is the latest recevied weather packets stored in our database for station/object WD4IXD-WX. If no packets are shown the sender has not sent any weather packets the latest 10 day(s).
| Time | Temp. | Humidity | Pressure | Rain* | Wind** | Luminosity | Snow |
|---|---|---|---|---|---|---|---|
| 1778112904 | 0° C | 71% | 1018.4 hPa | 0 mm | - | 320 W/m² | - |
| 1778112604 | 0° C | 71% | 1018.4 hPa | 0 mm | - | 339 W/m² | - |
| 1778112304 | -0.56° C | 72% | 1018.4 hPa | 0 mm | - | 359 W/m² | - |
| 1778112004 | -0.56° C | 72% | 1018.4 hPa | 0 mm | - | 376 W/m² | - |
| 1778111704 | -0.56° C | 70% | 1018.5 hPa | 0 mm | - | 394 W/m² | - |
| 1778111404 | -0.56° C | 70% | 1018.4 hPa | 0 mm | - | 413 W/m² | - |
| 1778111104 | 0° C | 71% | 1018.3 hPa | 0 mm | - | 427 W/m² | - |
| 1778110804 | 0° C | 72% | 1018.2 hPa | 0 mm | - | 446 W/m² | - |
| 1778110504 | 0° C | 73% | 1018.2 hPa | 0 mm | - | 464 W/m² | - |
| 1778110204 | -0.56° C | 73% | 1018.2 hPa | 0 mm | - | 482 W/m² | - |
| 1778109904 | -0.56° C | 71% | 1018.2 hPa | 0 mm | - | 503 W/m² | - |
| 1778109604 | -0.56° C | 72% | 1018.2 hPa | 0 mm | - | 519 W/m² | - |
| 1778109303 | -0.56° C | 74% | 1018.2 hPa | 0 mm | - | 536 W/m² | - |
| 1778109004 | -0.56° C | 73% | 1018.1 hPa | 0 mm | - | 550 W/m² | - |
| 1778108704 | -0.56° C | 72% | 1018.1 hPa | 0 mm | - | 568 W/m² | - |
| 1778108404 | -0.56° C | 74% | 1017.9 hPa | 0 mm | - | 585 W/m² | - |
| 1778108104 | -1.11° C | 71% | 1017.8 hPa | 0 mm | - | 599 W/m² | - |
| 1778107803 | -1.11° C | 72% | 1017.8 hPa | 0 mm | - | 619 W/m² | - |
| 1778107504 | -1.11° C | 71% | 1017.9 hPa | 0 mm | - | 633 W/m² | - |
| 1778107204 | -1.11° C | 72% | 1017.9 hPa | 0 mm | - | 649 W/m² | - |
| 1778106904 | -1.11° C | 72% | 1017.9 hPa | 0 mm | - | 659 W/m² | - |
| 1778106604 | -1.11° C | 71% | 1017.9 hPa | 0 mm | - | 675 W/m² | - |
| 1778106303 | -1.11° C | 70% | 1017.9 hPa | 0.25 mm | - | 696 W/m² | - |
| 1778106004 | -1.11° C | 73% | 1017.9 hPa | 0.25 mm | - | 710 W/m² | - |
| 1778105704 | -1.67° C | 74% | 1017.8 hPa | 0.25 mm | - | 722 W/m² | - |
* Rain latest hour (hover to see other rain measurements)
** Current wind speed in m/s (hover to see current wind gust speed)